Location: Tierra del Sol
(32.6128°N, 116.3319°W)
Time: 14:37:31
(UTC-07:00)

Tiangong 1 - Pass Details

Date: 16 October 2017
Orbit: 293 x 320 km, 42.8° (Epoch: 20 October)

Event Time Altitude Azimuth Distance (km) Brightness Sun altitude
Rises 18:54:16 0° 305° (NW) 2,042 5.6 -9.9°
Reaches altitude 10° 18:56:18 10° 312° (NW) 1,206 4.2 -10.3°
Maximum altitude 18:58:55 44° 27° (NNE) 438 1.1 -10.9°
Enters shadow 19:00:24 21° 92° (E) 776 2.0 -11.2°
